KAL017 RKSI-RKPC

Flight info

Callsign KAL017
Flight time 0h 48m
Altitude 27000
Route BOPTA Z51 BEDES Y711 DOTOL
Aircraft B77W/H-SDE1E2E3FGHIJ2J3J4J5M1RWXY/LB1D1

Departure

Time 2026-05-04 16:39
Airport Incheon International Airport (RKSI)

Arrival

Time 2026-05-04 17:27
Airport Jeju International Airport (RKPC)
Time Latitude Longitude Altitude Speed Heading
2026-05-04 15:53 37.46566 126.43424 37 ft 0 kts 319°
2026-05-04 16:27 37.46567 126.43423 37 ft 0 kts 319°
2026-05-04 16:28 37.46557 126.43581 37 ft 3 kts 109°
2026-05-04 16:28 37.46422 126.43759 37 ft 11 kts 145°
2026-05-04 16:29 37.46189 126.43671 37 ft 16 kts 236°
2026-05-04 16:30 37.46022 126.43374 38 ft 7 kts 233°
2026-05-04 16:31 37.45952 126.43173 38 ft 16 kts 303°
2026-05-04 16:31 37.46206 126.42934 38 ft 16 kts 324°
2026-05-04 16:32 37.46743 126.42455 38 ft 26 kts 325°
2026-05-04 16:33 37.47039 126.42191 38 ft 26 kts 325°
2026-05-04 16:33 37.47314 126.41944 38 ft 4 kts 324°
2026-05-04 16:34 37.47392 126.41870 38 ft 8 kts 306°
2026-05-04 16:34 37.47398 126.41856 38 ft 2 kts 293°
2026-05-04 16:35 37.47366 126.41747 38 ft 0 kts 236°
2026-05-04 16:35 37.47363 126.41741 38 ft 0 kts 236°
2026-05-04 16:36 37.47361 126.41738 38 ft 1 kts 236°
2026-05-04 16:36 37.47294 126.41619 38 ft 9 kts 231°
2026-05-04 16:37 37.47179 126.41651 38 ft 1 kts 146°
2026-05-04 16:37 37.47178 126.41651 38 ft 0 kts 146°
2026-05-04 16:37 37.47176 126.41654 38 ft 0 kts 145°
2026-05-04 16:38 37.46818 126.41970 38 ft 98 kts 144°
2026-05-04 16:39 37.44322 126.44104 676 ft 179 kts 152°
2026-05-04 16:39 37.42082 126.45780 1999 ft 194 kts 152°
2026-05-04 16:40 37.39341 126.47859 3376 ft 203 kts 152°
2026-05-04 16:40 37.36991 126.49092 3765 ft 240 kts 168°
2026-05-04 16:41 37.33625 126.50145 4949 ft 260 kts 167°
2026-05-04 16:41 37.28104 126.51703 7079 ft 278 kts 173°
2026-05-04 16:42 37.22255 126.52695 9355 ft 288 kts 174°
2026-05-04 16:43 37.18203 126.53408 10568 ft 307 kts 173°
2026-05-04 16:43 37.13616 126.54233 10938 ft 358 kts 173°
2026-05-04 16:43 37.11097 126.54694 11407 ft 373 kts 173°
2026-05-04 16:44 37.00574 126.56634 15004 ft 392 kts 172°
2026-05-04 16:45 36.95156 126.57631 16553 ft 405 kts 172°
2026-05-04 16:46 36.86578 126.59205 18891 ft 422 kts 172°
2026-05-04 16:46 36.80739 126.60274 20398 ft 429 kts 172°
2026-05-04 16:47 36.74780 126.61367 21835 ft 437 kts 172°
2026-05-04 16:47 36.68787 126.63093 23192 ft 447 kts 165°
2026-05-04 16:48 36.59678 126.66236 24958 ft 458 kts 166°
2026-05-04 16:48 36.56595 126.67279 25541 ft 460 kts 166°
2026-05-04 16:49 36.50373 126.69364 26115 ft 465 kts 166°
2026-05-04 16:49 36.44182 126.71435 26126 ft 458 kts 166°
2026-05-04 16:50 36.38007 126.73496 26137 ft 460 kts 166°
2026-05-04 16:50 36.31817 126.75579 26141 ft 461 kts 166°
2026-05-04 16:51 36.25626 126.77665 26137 ft 461 kts 166°
2026-05-04 16:51 36.22528 126.78707 26137 ft 461 kts 166°
2026-05-04 16:51 36.16228 126.80481 26131 ft 458 kts 175°
2026-05-04 16:52 36.09974 126.80725 26138 ft 445 kts 186°
2026-05-04 16:52 36.06896 126.80368 26151 ft 445 kts 187°
2026-05-04 16:53 36.00716 126.79637 26152 ft 447 kts 187°
2026-05-04 16:53 35.91405 126.78619 26147 ft 448 kts 187°
2026-05-04 16:54 35.88299 126.78283 26151 ft 448 kts 187°
2026-05-04 16:55 35.75776 126.76933 26149 ft 455 kts 187°
2026-05-04 16:55 35.69441 126.76253 26155 ft 453 kts 187°
2026-05-04 16:56 35.63154 126.75578 26154 ft 453 kts 187°
2026-05-04 16:56 35.53779 126.74572 26161 ft 453 kts 188°
2026-05-04 16:57 35.50651 126.74207 26151 ft 447 kts 192°
2026-05-04 16:57 35.45084 126.71138 26165 ft 442 kts 215°
2026-05-04 16:58 35.36110 126.69714 26178 ft 464 kts 165°
2026-05-04 16:58 35.33017 126.70878 26146 ft 463 kts 168°
2026-05-04 16:59 35.26884 126.71746 26145 ft 428 kts 184°
2026-05-04 17:00 35.15115 126.70470 26150 ft 423 kts 188°
2026-05-04 17:00 35.06379 126.69552 26147 ft 418 kts 188°
2026-05-04 17:01 35.00594 126.68941 26166 ft 418 kts 188°
2026-05-04 17:01 34.94778 126.68325 26167 ft 421 kts 188°
2026-05-04 17:02 34.88926 126.67707 26168 ft 423 kts 188°
2026-05-04 17:02 34.83041 126.67087 26163 ft 425 kts 188°
2026-05-04 17:03 34.80115 126.66781 26051 ft 418 kts 188°
2026-05-04 17:03 34.77233 126.66480 25523 ft 417 kts 188°
2026-05-04 17:03 34.71434 126.65870 24410 ft 417 kts 188°
2026-05-04 17:04 34.65673 126.65264 23333 ft 414 kts 187°
2026-05-04 17:04 34.59981 126.64669 22276 ft 408 kts 188°
2026-05-04 17:05 34.54369 126.64083 21306 ft 401 kts 188°
2026-05-04 17:05 34.48846 126.63505 20348 ft 396 kts 188°
2026-05-04 17:06 34.43383 126.62934 19397 ft 391 kts 187°
2026-05-04 17:06 34.40676 126.62650 18928 ft 389 kts 188°
2026-05-04 17:07 34.35331 126.62073 17924 ft 386 kts 188°
2026-05-04 17:07 34.33524 126.61877 17579 ft 384 kts 188°
2026-05-04 17:07 34.30015 126.61497 16933 ft 381 kts 187°
2026-05-04 17:07 34.27384 126.61214 16467 ft 378 kts 187°
2026-05-04 17:08 34.24772 126.60919 16200 ft 378 kts 191°
2026-05-04 17:08 34.20318 126.57940 16151 ft 370 kts 233°
2026-05-04 17:08 34.19050 126.55271 16161 ft 364 kts 251°
2026-05-04 17:09 34.18540 126.52299 16150 ft 362 kts 268°
2026-05-04 17:09 34.18816 126.49286 16166 ft 364 kts 285°
2026-05-04 17:09 34.19866 126.46518 16020 ft 365 kts 303°
2026-05-04 17:10 34.23919 126.42942 15099 ft 371 kts 342°
2026-05-04 17:10 34.31199 126.44952 13616 ft 364 kts 42°
2026-05-04 17:11 34.32736 126.47368 13106 ft 364 kts 62°
2026-05-04 17:11 34.33543 126.50269 12603 ft 365 kts 81°
2026-05-04 17:11 34.32730 126.56173 11592 ft 350 kts 121°
2026-05-04 17:12 34.31275 126.58403 11058 ft 329 kts 140°
2026-05-04 17:12 34.27494 126.60971 10363 ft 304 kts 168°
2026-05-04 17:13 34.21417 126.62437 9555 ft 291 kts 171°
2026-05-04 17:14 34.15530 126.63822 8771 ft 284 kts 170°
2026-05-04 17:14 34.13595 126.64286 8523 ft 282 kts 170°
2026-05-04 17:14 34.09785 126.65206 8016 ft 279 kts 170°
2026-05-04 17:15 34.07863 126.65671 7762 ft 277 kts 169°
2026-05-04 17:15 34.04164 126.66570 7395 ft 269 kts 169°
2026-05-04 17:16 34.00413 126.67481 7031 ft 278 kts 169°
2026-05-04 17:16 33.94710 126.68866 6288 ft 278 kts 169°
2026-05-04 17:17 33.92817 126.69325 6030 ft 277 kts 169°
2026-05-04 17:17 33.87156 126.70698 5273 ft 275 kts 168°
2026-05-04 17:18 33.85282 126.71153 5027 ft 273 kts 168°
2026-05-04 17:18 33.81575 126.72049 4509 ft 271 kts 168°
2026-05-04 17:19 33.78518 126.72787 4103 ft 267 kts 168°
2026-05-04 17:19 33.74933 126.73654 3946 ft 264 kts 168°
2026-05-04 17:20 33.71299 126.74531 3698 ft 267 kts 168°
2026-05-04 17:20 33.67688 126.75402 3424 ft 263 kts 169°
2026-05-04 17:20 33.65923 126.75486 3081 ft 247 kts 195°
2026-05-04 17:21 33.63490 126.73253 2891 ft 213 kts 237°
2026-05-04 17:21 33.61949 126.70266 2879 ft 200 kts 240°
2026-05-04 17:22 33.61247 126.68877 2924 ft 190 kts 239°
2026-05-04 17:22 33.60565 126.67533 2895 ft 186 kts 239°
2026-05-04 17:23 33.58531 126.63543 2801 ft 193 kts 239°
2026-05-04 17:23 33.57830 126.62174 2523 ft 191 kts 239°
2026-05-04 17:23 33.56496 126.59560 1999 ft 175 kts 238°
2026-05-04 17:24 33.55888 126.58371 1734 ft 159 kts 238°
2026-05-04 17:24 33.54225 126.55118 1140 ft 147 kts 237°
2026-05-04 17:25 33.53690 126.54073 951 ft 146 kts 237°
2026-05-04 17:25 33.52673 126.52094 671 ft 132 kts 237°
2026-05-04 17:26 33.51760 126.50284 229 ft 127 kts 238°
2026-05-04 17:26 33.50839 126.48498 99 ft 51 kts 238°
2026-05-04 17:27 33.50532 126.48178 98 ft 18 kts 149°
2026-05-04 17:27 33.50580 126.48373 97 ft 13 kts 68°
2026-05-04 17:28 33.50549 126.48574 96 ft 14 kts 76°
2026-05-04 17:29 33.50472 126.48685 96 ft 0 kts 148°
2026-05-04 17:30 33.50454 126.48698 96 ft 1 kts 148°